Wind_Speed
11 12 12 13 13 12 12 12 13 13 12 10 11 11 10 10 9 9 9 8 8 8 9 10 10 9 10 12 12 12 13 13 14 16 22 19 11 11 12 7 7 8 7 6 8 10 13 13 12 12 10 9 8 8 9 8 9 7 5 5 4 5 4 4 5 3 3 5 7 8 10 8 1 3 2 4 6 8 9 5 6 5 2 3 5 11 16 18
12 12 13 13 12 11 12 12 12 14 13 10 10 11 10 10 9 9 9 9 8 9 9 9 10 8 9 11 11 12 12 13 16 20 22 17 13 14 13 11 12 11 8 7 10 12 13 14 14 13 11 9 8 8 10 9 10 9 4 4 5 3 3 3 2 3 3 5 7 7 9 8 3 3 2 4 7 9 9 7 7 6 4 5 8 13 17 16
12 12 13 13 11 11 11 10 11 13 13 10 9 10 11 10 9 9 9 9 8 9 10 9 9 8 8 9 9 10 10 12 16 17 16 14 14 16 14 13 15 14 12 8 10 12 11 11 14 13 11 8 7 9 9 9 10 9 5 5 4 1 2 2 0 2 4 7 7 7 9 6 3 1 2 3 7 7 7 8 8 9 8 8 10 14 17 15
13 13 13 13 12 11 11 11 12 12 12 11 10 9 10 10 9 9 9 9 9 9 10 10 9 8 8 8 7 7 7 10 11 10 12 13 14 14 14 15 15 15 13 10 11 12 10 10 13 12 10 8 8 9 9 10 9 6 7 6 1 2 2 3 2 2 3 6 7 8 8 3 3 3 5 5 8 6 6 8 8 8 11 12 12 16 17 14
14 14 13 13 12 12 13 13 14 13 11 11 11 10 10 10 9 9 9 9 10 10 10 9 8 8 8 7 6 3 3 5 4 8 9 10 10 9 10 13 16 16 14 13 12 13 11 12 13 12 10 7 9 9 10 12 9 5 8 8 1 2 3 3 3 1 3 6 7 8 7 5 4 3 6 8 5 3 4 5 5 6 10 12 13 16 17 14
13 13 13 13 13 13 14 14 13 12 11 11 12 10 10 10 10 9 9 9 10 10 9 9 8 7 7 6 5 3 5 3 3 5 7 10 9 6 5 7 13 17 17 15 13 14 13 14 14 12 11 8 9 9 9 13 11 7 8 8 7 7 4 2 2 1 4 7 8 7 7 7 6 2 5 7 2 6 6 3 4 6 9 12 12 14 16 13
14 13 14 14 14 14 15 16 14 11 11 11 11 10 9 10 10 9 9 9 9 9 9 10 8 6 6 5 4 4 10 10 2 5 7 8 6 4 3 3 8 16 19 17 16 16 15 17 16 13 11 8 10 11 9 12 13 10 6 7 9 8 6 5 3 4 5 7 8 8 7 7 5 2 3 4 0 4 4 2 4 6 9 11 10 13 15 12
15 14 14 14 15 16 17 17 16 12 10 9 10 11 11 10 10 9 8 8 9 9 8 10 8 6 6 4 4 6 13 16 11 10 8 8 7 6 5 3 5 14 21 20 18 18 16 18 17 13 10 8 9 10 10 11 12 13 8 6 8 6 6 6 4 5 6 7 8 7 7 6 3 1 3 4 3 2 2 2 4 6 9 10 10 12 13 12
16 16 15 15 16 16 16 16 15 12 9 8 10 12 12 11 11 9 8 7 8 9 8 10 8 6 5 4 4 6 12 16 14 14 13 12 11 10 8 4 4 12 21 20 18 18 17 17 18 14 10 8 9 9 11 10 8 12 13 8 8 7 6 5 6 6 5 6 7 5 5 3 2 3 5 4 2 1 0 3 5 7 9 9 9 12 13 12
17 16 16 16 16 16 16 15 12 10 9 9 11 12 12 11 11 9 8 8 8 9 9 9 8 5 4 5 6 6 10 13 11 11 10 10 11 9 7 5 4 11 20 20 19 19 17 16 16 12 8 6 8 8 12 11 3 7 13 11 9 9 7 6 7 6 6 7 8 7 4 3 4 6 4 6 3 3 2 4 6 8 9 8 9 11 12 11
17 17 17 17 17 17 17 15 12 11 10 10 11 12 13 12 11 9 8 8 8 9 9 9 7 6 5 7 9 8 9 11 8 7 6 5 6 6 7 6 7 14 20 21 20 19 16 12 11 10 6 5 9 9 12 11 4 3 8 10 10 9 8 9 9 7 6 5 5 7 5 4 6 6 3 6 3 2 2 5 7 9 9 8 8 10 10 10
17 18 18 18 18 18 16 15 14 12 10 11 12 13 13 12 10 9 8 8 9 9 9 8 6 5 4 7 14 14 11 10 7 7 6 2 2 5 8 7 9 15 18 19 19 17 14 9 11 13 5 5 9 6 9 12 8 5 6 7 8 8 9 11 10 7 7 4 3 5 6 8 8 2 7 5 1 1 2 5 7 9 8 7 7 8 8 9
17 18 19 20 20 18 15 15 14 11 9 11 13 12 13 13 10 9 8 8 9 9 9 7 5 4 4 9 18 18 14 13 11 11 8 5 3 4 5 7 12 15 14 16 16 14 12 8 12 14 6 6 8 4 5 10 8 8 8 6 6 7 8 12 11 8 7 5 4 6 7 9 7 8 9 3 1 2 3 4 7 8 7 5 5 7 7 8
18 18 19 20 19 16 14 13 12 10 10 12 14 14 14 13 11 9 9 9 9 9 7 5 3 3 5 12 18 16 15 17 17 15 12 10 8 5 3 6 14 15 12 11 12 12 10 7 10 12 7 7 5 5 6 9 7 8 8 6 5 6 8 12 11 10 9 5 6 9 7 6 9 10 9 5 2 3 3 2 3 5 4 3 4 6 8 10
17 17 18 19 16 13 12 12 11 11 11 13 13 15 15 12 10 9 10 10 9 7 5 4 3 3 7 15 17 13 14 17 17 16 15 14 11 8 6 7 13 14 11 8 9 10 8 8 10 11 10 6 5 8 8 7 7 7 7 7 7 6 8 12 10 10 8 6 9 10 6 6 10 10 10 6 2 2 2 1 0 1 2 3 4 7 10 10
17 17 18 17 14 12 11 11 11 12 13 14 15 16 14 11 9 10 12 10 7 5 4 3 5 5 6 11 11 9 11 13 15 16 16 16 12 8 8 10 13 14 12 8 7 9 8 9 10 10 11 9 7 9 7 6 7 7 7 7 8 8 7 10 10 9 7 7 11 11 6 5 8 9 10 8 3 1 3 2 1 3 3 4 4 8 10 9
17 16 17 16 13 12 12 11 12 13 14 16 18 17 12 9 9 10 10 8 5 4 5 2 4 6 7 7 8 8 9 10 11 12 13 16 14 10 11 13 14 15 12 9 7 8 11 11 9 7 8 9 9 8 7 8 8 7 8 6 8 10 7 9 10 10 9 9 11 10 3 6 8 8 11 12 8 3 2 2 3 4 5 4 4 7 8 9
17 16 16 16 14 13 13 13 13 14 16 17 17 12 6 6 6 6 7 8 7 6 3 4 6 4 9 12 10 6 6 7 10 10 10 15 16 13 14 14 15 16 13 10 9 10 13 12 9 7 8 9 10 9 8 8 8 9 9 6 7 9 8 9 11 11 13 12 12 10 5 8 8 9 12 14 12 8 6 5 4 5 5 4 4 6 7 8
16 16 16 16 15 14 14 14 14 15 17 16 12 5 1 1 2 3 7 12 12 7 1 10 16 4 2 7 10 7 7 7 8 9 10 15 18 15 14 14 16 18 15 10 11 13 13 10 9 9 9 11 11 12 10 6 8 11 11 8 8 9 7 7 10 8 12 13 10 10 8 8 9 10 11 13 12 11 10 8 7 7 7 7 8 7 7 7
16 16 16 16 15 14 15 15 15 16 16 11 6 1 3 4 4 5 10 14 18 13 5 10 22 13 4 3 2 4 9 10 7 8 11 15 20 19 15 16 18 16 13 10 10 14 14 9 9 10 11 14 14 15 11 5 7 11 11 10 9 11 9 8 9 6 7 8 6 7 9 10 10 9 10 11 12 12 12 11 10 10 10 10 10 10 10 9
16 16 15 15 15 14 15 15 15 18 17 9 4 4 5 4 4 4 8 15 22 23 16 12 17 17 13 4 0 1 3 7 8 9 11 16 22 20 17 18 16 12 12 12 11 12 13 10 11 13 13 15 16 14 10 6 9 10 10 9 9 10 9 9 9 6 4 5 6 9 10 10 10 9 10 11 12 14 14 13 12 12 12 12 13 16 16 16
16 15 15 15 14 14 15 16 15 17 15 8 5 9 8 6 5 2 2 9 16 22 24 20 16 18 21 16 11 8 3 5 11 12 12 18 23 19 17 18 13 11 13 13 11 9 11 10 13 16 13 13 14 13 11 8 10 9 8 9 8 8 9 10 8 7 5 4 7 10 9 9 10 9 10 11 12 14 14 15 15 15 16 16 16 18 18 18
15 15 15 14 14 14 15 16 15 13 10 7 9 11 8 6 8 4 4 8 11 16 22 23 22 23 27 22 18 16 10 8 11 14 16 20 23 21 18 17 13 13 13 13 11 9 9 10 13 15 13 14 13 14 14 10 9 9 8 8 8 10 10 8 7 8 5 4 8 11 8 7 8 9 9 10 12 13 14 15 17 17 18 19 20 20 20 19
15 14 14 14 14 14 14 16 14 11 9 10 13 12 9 6 6 3 5 7 9 11 18 21 23 25 26 19 14 17 15 12 10 12 18 21 23 20 17 17 15 13 13 15 14 11 8 9 14 15 14 16 14 14 15 11 9 10 10 9 8 11 9 6 10 10 6 6 10 12 8 5 6 8 8 8 10 12 13 14 16 16 17 19 21 22 21 20
14 14 14 14 13 13 14 15 11 8 8 9 10 10 10 6 3 2 4 7 7 8 12 16 17 20 23 15 11 14 13 15 15 11 16 23 23 18 15 17 15 11 14 17 15 11 9 10 16 17 15 17 15 14 16 13 9 9 12 10 8 12 9 9 14 11 7 7 11 12 8 6 6 7 8 7 8 10 12 14 14 15 16 18 20 20 20 20
14 14 14 13 13 13 12 11 8 6 6 6 5 7 8 4 2 2 3 5 5 6 9 13 14 14 18 17 16 15 9 14 19 14 15 21 22 18 14 14 11 11 15 15 10 7 8 12 16 16 16 18 16 14 16 15 9 8 11 11 7 11 10 11 13 11 6 6 10 11 8 6 7 6 8 8 9 11 11 13 14 14 16 17 19 19 18 18
14 14 14 13 12 11 7 6 7 5 2 4 6 7 5 3 2 3 4 5 5 8 10 11 12 11 16 20 23 17 6 10 18 18 17 19 22 19 13 12 10 10 12 11 8 7 9 14 16 17 17 16 14 12 15 17 11 6 13 14 10 9 10 11 11 9 5 5 9 11 9 5 7 7 9 10 10 11 10 11 12 13 15 17 19 18 18 17
15 15 14 12 12 11 8 8 8 5 3 4 6 6 5 4 2 3 5 4 3 8 9 9 8 9 13 19 28 21 6 12 17 17 21 20 22 19 13 14 12 10 13 11 8 8 11 15 16 18 17 13 12 12 14 17 12 4 11 15 12 9 10 10 10 8 5 5 8 12 10 7 7 8 9 11 10 10 9 9 10 12 14 16 17 17 16 17
15 14 13 13 12 11 11 11 9 7 6 4 4 6 6 5 4 4 5 5 4 5 6 9 9 10 13 17 26 24 12 11 12 18 24 21 21 17 12 16 15 11 14 13 9 9 11 16 18 17 14 11 13 13 14 17 11 5 10 11 10 8 8 7 8 7 6 6 9 12 13 9 6 8 10 10 9 9 8 8 9 12 14 15 15 15 14 14
14 13 12 13 11 9 9 9 10 9 7 6 5 6 6 5 5 6 5 4 4 4 6 9 10 14 17 15 17 22 17 10 9 21 25 20 21 17 11 16 17 11 12 14 12 9 11 16 17 15 13 12 13 11 13 17 11 8 9 10 8 8 7 6 7 6 7 8 10 14 15 11 6 8 8 7 7 9 9 7 8 11 13 14 14 14 14 14
13 12 12 12 9 6 5 5 7 8 6 6 5 5 6 5 5 6 6 3 1 4 7 8 11 14 19 17 13 17 17 10 13 20 18 16 19 16 11 13 13 10 10 11 12 10 12 13 11 12 14 13 12 10 10 13 11 8 9 9 8 8 6 6 7 6 8 9 8 13 14 11 7 7 7 8 9 10 10 9 9 10 12 13 14 14 15 14
13 12 12 13 10 8 7 5 4 5 5 3 3 6 7 6 5 6 6 3 3 3 3 6 11 13 17 18 14 16 16 11 15 18 15 14 14 13 13 11 10 11 10 11 11 10 11 12 12 12 13 13 11 10 8 9 10 10 10 10 10 9 8 9 9 8 8 5 6 10 12 8 3 6 10 12 11 12 12 11 11 12 13 13 13 14 14 14
11 12 13 13 13 11 10 8 6 5 2 1 2 6 7 5 6 8 7 4 1 1 2 1 8 12 16 16 15 17 16 12 15 17 16 16 14 13 16 15 14 12 9 11 12 9 9 12 15 14 12 14 14 10 9 9 11 12 10 10 10 9 9 10 9 9 9 5 5 7 10 7 4 7 12 13 13 14 15 14 13 14 14 14 13 14 14 14
10 12 13 13 13 12 11 10 9 6 3 2 3 5 6 5 6 9 8 3 2 2 2 1 5 11 14 13 13 17 14 12 17 17 16 17 13 12 15 16 19 14 8 11 11 10 10 10 13 13 10 15 16 11 10 10 11 12 11 10 10 8 8 9 9 10 10 7 7 6 7 6 6 7 12 14 14 16 16 14 14 14 13 13 13 13 13 13
12 13 13 12 12 11 11 11 10 8 6 5 6 6 7 6 5 6 5 2 3 2 3 3 6 10 12 11 13 19 14 10 17 17 15 15 13 13 13 14 18 16 10 11 8 10 12 8 13 15 11 16 18 14 12 12 11 11 11 11 10 10 8 5 2 4 7 8 7 5 2 3 5 8 12 13 14 15 16 15 15 14 13 12 13 13 12 11
11 9 10 9 9 9 9 10 11 10 9 8 7 6 7 5 2 2 1 3 3 3 6 5 8 10 11 9 12 20 15 9 16 15 12 16 14 15 14 12 17 17 12 10 6 8 10 7 14 17 11 15 20 17 14 13 10 7 10 11 6 6 7 6 2 2 4 8 6 4 4 6 6 7 10 12 12 13 13 14 15 13 13 13 13 13 12 11
6 6 8 8 7 7 8 11 12 12 12 9 7 6 6 5 2 2 3 3 4 2 7 5 8 9 11 10 11 19 15 10 15 13 11 15 14 15 17 14 17 19 14 10 7 6 8 6 13 17 13 13 17 18 16 15 11 7 10 11 5 2 4 7 6 4 6 8 5 5 9 10 7 5 9 12 12 11 10 13 14 13 13 14 13 12 11 10
3 4 6 6 6 7 9 11 13 15 12 8 7 7 5 5 3 0 2 2 4 2 6 3 4 6 11 11 11 18 17 12 14 13 11 12 11 15 17 14 17 20 17 14 8 6 9 6 10 16 16 13 12 13 13 13 11 8 9 11 8 5 6 7 7 7 9 8 5 9 11 10 7 7 10 13 12 12 11 11 12 12 13 13 12 11 10 10
2 2 4 4 5 7 8 10 15 15 10 7 8 7 5 6 6 2 1 2 3 2 5 3 0 3 8 11 13 16 16 14 13 12 11 10 9 14 16 12 14 19 18 14 7 6 9 6 7 12 13 13 11 10 10 11 9 8 9 10 8 6 7 8 6 6 9 8 6 9 10 7 5 8 13 14 13 14 12 10 11 13 13 12 11 10 10 9
3 3 2 2 3 6 8 13 14 12 8 7 7 5 4 6 5 1 1 1 2 1 4 4 2 1 2 8 15 15 13 15 15 11 10 10 8 11 15 13 13 17 18 14 8 7 7 6 5 10 10 11 11 9 10 12 12 9 8 11 10 6 5 8 6 4 7 8 8 7 8 6 3 4 10 14 13 13 13 12 13 15 15 13 12 10 9 9
3 3 2 1 4 10 14 13 10 8 7 7 7 6 5 5 5 3 1 1 2 2 4 6 5 4 5 4 11 14 12 13 15 11 9 12 9 7 13 14 13 16 16 13 10 6 6 7 6 9 10 11 9 5 3 6 10 11 10 11 11 8 7 8 7 4 5 6 7 7 7 5 5 4 6 11 11 12 14 15 16 16 15 13 12 11 10 9
3 2 2 1 8 16 15 9 7 8 7 7 7 7 7 6 6 4 1 2 1 3 5 6 6 6 5 6 6 11 12 10 14 13 8 13 11 7 13 16 16 18 14 10 10 6 2 5 8 9 9 7 6 5 2 1 3 8 10 11 12 10 9 9 8 7 6 4 4 6 6 4 5 6 9 12 13 14 15 16 19 17 14 13 12 11 11 10
2 3 4 5 13 13 7 6 6 7 7 7 7 8 8 7 6 4 1 1 1 3 5 5 5 6 5 5 6 8 13 10 12 13 11 14 10 5 14 18 16 17 14 10 10 6 2 5 8 8 7 5 6 5 3 2 3 8 8 8 10 10 9 7 6 7 8 6 6 6 5 4 5 7 12 15 16 17 15 17 19 17 14 14 12 12 11 10
3 5 7 9 10 4 5 5 6 7 7 7 8 8 7 6 5 4 2 2 3 3 4 5 6 6 5 5 7 8 13 9 6 8 9 11 7 6 12 17 15 16 13 9 10 8 5 6 7 8 9 7 6 7 7 7 7 7 5 3 3 5 8 5 3 6 7 8 8 7 4 5 6 8 12 14 16 16 16 16 16 15 14 13 12 13 12 11
4 6 8 8 4 2 5 3 3 6 7 7 7 7 7 5 1 2 3 4 7 7 6 6 7 7 8 7 8 9 13 10 5 6 7 7 7 5 9 14 14 14 10 8 10 9 4 2 3 8 12 11 10 9 7 8 8 5 4 4 1 3 8 6 5 7 6 7 8 6 3 7 9 11 12 12 13 14 15 15 14 14 14 13 13 13 12 12
2 3 6 7 5 5 7 6 5 4 6 6 5 5 7 3 2 5 5 6 9 11 11 10 10 9 10 9 8 10 14 13 8 8 9 8 7 5 9 13 10 9 11 10 10 8 3 3 4 1 5 6 5 4 1 5 9 7 7 6 4 2 2 4 7 7 5 8 7 3 9 13 12 12 12 11 11 12 14 15 14 14 13 13 14 14 13 13
2 2 5 5 5 6 6 6 5 4 5 6 3 1 2 1 3 4 5 7 6 7 9 11 11 10 9 9 9 9 12 12 9 10 9 8 8 7 11 12 8 10 14 11 8 6 4 4 6 7 7 6 6 6 4 5 8 9 8 7 5 3 1 3 5 2 4 8 5 6 15 17 14 13 13 12 11 12 14 14 13 14 14 14 14 15 15 14
1 3 4 3 3 3 3 4 5 3 2 3 0 3 1 3 4 3 6 8 5 3 4 7 11 13 13 10 9 9 11 9 7 9 10 9 10 10 11 10 8 11 13 8 5 4 4 5 4 7 10 10 8 8 8 10 12 11 10 9 7 5 3 4 3 3 0 4 5 10 15 15 14 14 13 13 13 14 16 15 14 15 15 13 14 15 16 15
1 3 4 2 2 1 1 2 3 2 2 2 1 2 4 7 8 8 7 6 4 3 5 6 9 13 14 11 10 10 11 10 7 8 10 11 11 10 9 8 8 11 12 8 5 2 3 5 7 9 12 11 9 9 10 13 14 14 13 11 10 11 10 10 9 8 8 9 11 16 17 14 12 13 14 15 16 17 18 16 16 16 14 13 14 16 16 15
2 1 1 2 3 2 1 2 3 3 3 1 2 4 7 9 9 8 5 6 6 5 7 9 9 9 11 13 12 6 4 10 13 11 10 10 10 8 6 7 8 10 10 7 5 2 2 6 9 8 9 9 8 9 10 13 15 16 15 12 11 13 12 12 11 11 12 13 14 18 18 12 10 14 18 18 18 18 18 17 16 15 14 13 15 16 15 14
5 1 1 2 2 2 2 3 4 3 1 3 4 4 5 8 8 4 1 3 6 4 5 8 7 5 9 9 8 5 7 9 12 10 8 8 6 3 2 6 9 10 8 6 4 3 4 7 9 6 5 6 7 9 12 14 16 16 14 12 10 9 9 8 6 4 6 13 16 15 12 8 10 16 18 18 18 19 18 16 16 15 14 14 15 15 14 13
7 2 2 4 2 2 2 3 4 2 2 4 6 6 7 9 9 5 1 4 2 2 3 8 10 2 11 12 10 8 11 18 19 13 11 14 13 8 6 8 7 7 8 6 4 3 6 8 8 6 5 5 6 8 8 8 10 9 8 8 7 8 10 9 8 7 9 12 10 7 8 10 13 16 16 16 17 18 17 15 15 16 16 15 15 15 13 13
Wind_Direction
315 316 315 312 310 306 300 299 302 304 302 301 302 299 297 295 291 284 277 273 272 272 273 276 277 283 287 286 287 288 286 282 272 265 263 259 260 255 245 241 226 211 211 205 181 170 167 172 173 174 176 182 198 186 178 184 185 195 220 223 219 215 185 156 164 108 61 65 34 24 20 358 56 140 167 168 154 147 152 146 155 159 145 138 119 130 155 173
314 314 317 317 315 310 304 299 299 300 299 302 305 303 301 298 294 288 281 275 273 270 274 281 280 281 286 285 289 292 290 290 280 268 267 263 254 250 239 230 229 224 222 207 188 177 171 175 171 172 178 184 190 179 181 183 191 211 223 220 227 213 116 90 87 54 23 11 10 12 15 359 10 116 161 192 153 153 165 156 171 168 155 156 133 141 158 164
315 311 312 317 316 312 309 303 300 299 298 297 296 299 301 300 295 286 281 278 277 273 276 282 283 284 283 282 288 294 297 300 288 272 269 264 251 249 242 229 226 226 225 210 193 191 188 182 175 177 184 190 185 183 192 184 195 217 221 226 223 173 105 123 203 4 3 353 352 359 358 359 25 38 282 215 157 173 183 156 178 179 157 152 141 149 154 154
327 318 309 309 308 305 302 295 293 296 300 297 288 288 294 297 296 287 281 279 278 275 277 282 284 284 282 284 288 298 316 305 277 249 253 253 244 244 241 231 224 221 220 209 195 199 203 190 184 185 193 197 181 186 195 184 191 201 214 240 175 116 216 172 190 296 358 346 337 341 335 350 17 294 256 211 169 183 186 158 177 174 160 159 148 151 155 156
331 328 320 312 307 306 304 296 291 287 288 294 291 290 291 294 296 291 286 282 280 277 277 282 284 283 282 282 282 290 312 297 224 208 228 219 211 217 225 229 222 215 212 209 194 191 196 188 186 190 202 202 174 189 201 191 198 203 216 247 283 197 225 146 137 344 347 328 321 324 327 349 339 262 219 223 201 123 110 136 164 152 161 173 161 156 157 158
328 328 325 320 312 309 307 304 302 293 285 286 287 289 292 295 294 287 283 281 279 279 276 279 284 283 282 276 274 231 230 261 114 181 194 172 177 177 193 223 218 209 204 203 190 185 188 183 186 192 204 208 186 199 203 188 202 225 216 228 240 235 231 164 160 300 322 307 308 320 333 332 304 205 183 236 270 51 51 75 142 144 167 180 174 164 156 160
325 324 322 323 318 310 303 301 304 301 293 289 288 290 289 289 291 284 277 278 276 277 275 275 280 278 276 268 262 224 234 258 253 196 187 176 187 175 205 239 214 204 196 194 185 183 185 184 193 199 205 209 199 206 197 182 202 233 227 203 222 232 231 236 244 265 292 293 299 312 312 298 277 161 165 221 108 35 26 81 142 156 175 176 172 163 152 161
322 321 319 321 321 317 308 301 301 298 294 299 297 292 287 282 286 281 273 278 276 273 270 272 278 273 263 240 241 242 238 245 241 229 234 237 241 248 262 273 220 199 192 192 187 186 187 191 201 202 210 213 203 201 186 184 204 228 236 205 209 217 220 233 242 250 270 280 287 295 284 270 264 184 182 180 123 26 15 122 149 162 175 168 161 156 147 160
318 318 317 317 320 322 317 309 304 299 289 290 292 288 287 283 282 279 268 272 274 268 266 270 272 263 249 212 219 250 242 243 246 248 255 259 259 264 266 261 229 195 190 193 191 192 192 200 204 204 224 219 202 196 184 199 208 212 225 222 212 213 212 219 230 242 256 267 273 272 250 219 194 208 192 162 144 269 166 151 154 159 168 155 150 152 146 155
316 316 315 316 318 322 320 313 307 304 288 274 278 283 283 280 279 276 265 264 264 262 264 267 265 252 230 203 214 237 244 248 252 252 256 260 260 263 254 232 211 190 188 190 194 197 199 209 206 206 242 226 203 198 189 208 219 195 218 225 226 226 218 225 235 242 251 253 257 251 223 153 174 217 184 138 180 238 167 162 166 166 162 146 142 151 148 153
313 313 312 314 316 317 317 310 299 296 293 280 273 277 279 278 278 272 266 264 258 258 263 264 261 249 224 207 217 232 248 251 246 242 248 263 260 236 212 198 183 187 187 189 196 200 203 213 201 196 228 211 195 196 195 212 230 176 209 220 226 230 223 228 231 228 239 241 239 239 212 165 196 221 72 91 158 233 172 169 172 170 159 147 144 148 150 151
310 309 311 313 313 313 311 307 295 282 286 290 278 275 277 275 274 268 259 259 260 260 263 263 258 252 243 229 231 232 243 252 239 224 220 221 229 185 184 176 171 186 189 193 197 198 203 207 197 199 207 185 180 182 193 204 214 191 202 218 201 208 217 216 215 209 222 225 210 228 202 183 186 128 41 47 91 334 222 184 173 175 160 151 147 143 140 139
307 308 310 312 312 310 306 304 297 276 274 287 280 275 274 268 266 263 251 248 256 259 260 258 251 249 249 246 246 244 246 250 240 221 209 207 208 175 172 163 169 182 188 195 194 192 199 197 201 206 214 213 185 134 161 182 200 197 207 234 187 189 206 194 196 195 209 221 215 231 208 174 144 71 37 17 348 322 246 191 176 179 161 147 141 133 120 112
306 308 311 313 311 308 306 305 300 281 273 279 277 275 271 262 257 255 245 244 250 256 254 240 229 233 240 256 262 261 253 250 243 230 222 223 226 237 244 170 172 176 173 183 186 186 196 196 206 208 216 232 183 138 163 169 189 192 194 229 214 201 181 167 181 191 195 195 202 232 226 146 99 59 32 24 349 296 249 196 171 173 150 123 114 102 89 85
305 309 313 315 312 308 306 304 302 294 284 280 278 274 268 259 251 241 236 241 245 246 233 204 192 204 257 272 274 266 251 247 243 233 229 228 227 234 232 178 169 170 162 160 171 183 190 188 202 205 198 204 172 174 185 171 187 194 188 203 214 209 158 150 175 195 196 176 187 224 224 120 81 52 33 27 354 300 268 237 102 119 94 77 87 87 85 83
303 308 315 317 314 309 303 297 295 292 288 283 277 272 270 266 246 229 233 236 236 222 191 195 200 203 266 280 270 258 244 237 236 233 229 223 216 209 196 173 164 166 163 151 153 171 180 185 198 207 195 185 188 194 187 180 186 194 204 198 194 202 165 149 170 194 202 170 179 221 236 104 76 53 43 34 23 306 268 257 17 13 32 43 71 89 93 92
301 304 313 316 312 306 299 293 289 287 288 284 280 278 278 268 239 230 234 223 212 174 149 158 189 214 252 257 252 248 229 224 227 227 224 216 206 191 174 166 166 167 161 154 155 164 175 186 192 205 206 195 199 202 192 194 188 183 207 204 185 198 181 151 160 175 190 186 183 206 231 84 78 57 51 40 34 37 303 316 9 8 22 30 57 91 95 86
296 300 308 310 306 303 299 292 287 286 286 285 289 287 269 250 234 230 215 181 146 119 138 183 173 220 243 227 229 219 193 209 214 212 211 202 194 185 175 167 164 164 160 164 171 171 176 184 190 196 203 201 199 201 201 200 189 180 191 191 179 195 195 164 156 163 183 196 189 179 140 95 83 57 49 39 34 41 31 19 21 21 29 36 54 88 90 78
291 296 304 306 300 298 298 293 287 286 287 292 302 301 191 158 136 163 175 165 156 147 201 192 183 202 321 200 217 225 206 196 195 200 197 190 182 177 178 170 161 163 166 171 175 179 179 179 197 201 198 199 197 201 210 207 189 181 181 186 179 185 195 160 136 147 182 191 187 173 143 101 77 58 51 43 40 45 43 41 45 47 51 53 59 75 80 75
286 292 299 301 297 295 296 295 287 284 288 298 316 293 173 167 174 169 171 189 201 209 253 196 196 228 304 110 174 236 218 205 199 192 190 186 173 167 172 169 166 173 181 175 168 178 183 188 202 203 199 194 194 202 209 213 190 180 183 191 184 183 183 149 128 129 182 183 153 140 124 93 72 63 56 50 50 49 47 49 49 52 54 55 63 75 81 80
282 288 295 297 295 292 293 296 288 281 283 289 284 237 222 217 224 177 174 213 225 225 241 224 210 238 251 237 157 158 187 209 208 189 188 182 169 167 170 171 174 185 193 179 159 168 188 207 204 200 203 192 193 200 198 200 194 187 192 189 185 188 171 146 139 134 178 182 136 130 116 90 77 70 62 57 56 50 47 50 52 53 56 60 65 71 76 78
278 283 291 294 293 290 291 298 292 283 283 280 251 241 251 259 238 184 186 247 243 231 233 232 229 245 245 241 241 240 270 235 204 186 182 177 177 178 170 176 186 184 187 180 162 168 195 216 204 198 201 190 188 194 191 194 196 195 198 189 189 179 143 129 132 137 178 195 151 143 123 94 84 77 70 66 66 61 57 58 60 62 64 67 68 68 73 75
274 279 288 290 290 288 291 297 290 285 285 262 248 247 248 234 213 218 270 275 266 231 223 226 227 236 240 238 238 236 243 243 207 186 180 177 185 188 174 181 192 180 180 183 180 184 195 210 199 188 187 182 181 189 195 198 200 205 200 193 190 170 155 150 143 140 165 185 158 150 131 111 104 94 83 77 81 76 68 68 67 68 69 70 71 70 70 71
270 277 285 286 286 287 290 294 287 285 280 254 251 243 221 215 223 267 268 262 273 228 213 221 220 227 234 233 230 224 224 235 219 186 181 182 186 187 182 187 191 185 184 190 196 198 202 198 183 177 180 185 183 186 195 198 200 207 204 202 188 177 179 152 137 139 141 156 163 159 147 139 133 118 105 95 94 81 72 74 69 65 68 69 68 66 66 66
269 275 282 283 284 287 291 294 287 273 262 252 255 226 201 212 240 281 257 253 260 211 205 213 212 227 227 212 206 209 216 229 222 195 181 187 187 182 186 190 192 194 187 191 198 206 211 181 171 182 188 191 191 187 195 199 197 199 206 214 191 179 174 128 137 152 155 168 179 185 187 165 152 130 119 116 104 85 74 74 66 58 61 63 62 61 61 61
269 274 280 280 280 285 293 294 271 250 247 238 228 188 181 205 238 234 229 254 247 173 170 186 192 212 205 189 186 192 215 225 216 204 184 190 191 184 184 185 195 206 188 187 199 215 203 167 171 188 188 191 196 194 196 198 205 197 194 209 199 182 174 149 161 178 185 182 184 205 224 175 160 144 131 135 117 98 81 71 65 57 55 58 59 59 58 56
271 273 275 274 273 278 281 272 254 245 237 209 190 174 189 218 225 208 208 250 234 166 148 166 180 190 188 183 178 183 212 189 189 198 190 189 191 193 196 179 189 204 179 177 202 209 184 171 181 189 187 193 198 198 194 196 217 197 171 191 201 191 185 174 183 199 196 161 172 207 237 204 169 156 150 152 128 105 88 72 67 61 56 56 57 58 57 55
272 271 272 266 265 268 255 249 254 251 233 204 183 190 221 231 207 199 215 236 182 151 146 157 169 176 180 179 177 185 185 149 168 188 186 188 186 191 205 186 183 185 173 185 196 173 171 180 185 186 190 197 199 199 187 194 219 173 153 187 200 202 204 196 198 204 183 171 189 202 222 219 168 152 163 164 141 113 97 81 71 65 60 57 57 57 56 55
271 267 265 260 262 273 269 255 248 240 229 210 195 208 225 228 205 205 230 225 160 137 140 151 159 167 167 171 182 192 189 171 181 172 173 188 188 193 212 191 185 178 178 200 200 159 172 189 187 187 195 196 199 199 182 194 212 132 145 185 195 207 222 216 216 205 177 204 213 191 199 217 170 155 177 176 155 129 108 90 79 72 66 62 59 57 56 55
265 259 257 257 261 275 278 260 243 236 227 219 219 215 221 215 195 199 212 214 173 134 123 146 163 169 165 165 184 195 195 194 172 158 167 183 185 195 209 188 189 184 178 204 213 176 166 185 191 195 203 199 196 192 182 195 194 136 159 184 185 202 218 224 232 222 194 214 219 189 193 216 192 167 175 162 140 131 123 107 90 77 67 63 59 58 56 55
257 252 249 249 249 250 251 247 238 226 209 211 208 199 208 205 210 210 182 172 207 140 132 157 164 164 169 169 177 191 196 188 158 159 168 175 179 188 188 182 191 186 176 199 210 183 166 182 192 195 205 202 188 174 177 192 186 170 186 190 186 192 202 210 212 220 217 215 205 179 186 215 212 175 149 119 107 116 119 111 97 82 70 63 59 58 56 54
252 247 246 245 242 237 229 221 205 180 173 202 201 196 200 191 217 223 170 161 231 167 139 166 164 167 179 179 172 180 190 182 168 170 170 171 179 186 186 184 184 184 183 189 190 180 180 190 186 185 198 201 191 176 175 184 190 200 200 191 192 186 189 206 200 205 216 199 163 164 180 207 198 123 124 118 107 103 101 98 98 90 80 72 65 61 57 52
252 248 251 252 248 239 229 224 209 185 194 269 204 206 215 201 195 203 189 172 183 16 11 148 170 178 186 185 174 177 184 174 171 175 173 175 179 184 193 192 186 190 189 183 184 178 181 191 188 186 190 199 205 194 180 184 194 204 201 193 199 187 185 201 197 199 203 161 124 165 184 183 141 114 119 118 114 109 103 99 98 91 84 77 72 68 61 54
259 256 257 255 248 237 225 222 217 215 235 225 176 195 222 217 181 191 200 157 76 301 279 201 180 181 191 196 176 174 183 172 171 176 175 178 181 182 192 191 189 197 187 181 190 185 184 188 187 191 187 189 206 210 187 184 195 204 206 203 207 204 195 198 200 202 197 158 128 164 190 178 163 134 117 119 121 115 109 104 98 90 85 81 76 71 64 57
271 268 262 255 245 236 227 219 213 209 206 195 192 200 214 207 172 182 198 107 50 290 267 256 210 183 187 198 178 177 188 174 171 179 177 181 187 184 187 187 187 195 190 182 186 186 196 193 175 187 191 182 199 215 197 189 197 201 209 211 211 216 204 181 216 223 181 154 136 150 164 106 119 115 118 128 125 117 114 108 99 91 88 83 76 70 65 59
281 275 264 253 241 233 221 210 204 195 194 203 208 210 215 214 166 115 91 45 40 307 296 256 207 184 178 185 178 179 187 178 175 182 180 183 190 186 184 183 185 194 196 184 176 183 198 184 161 174 190 186 195 203 194 196 196 182 205 210 206 236 217 166 120 44 151 169 158 149 136 115 117 121 134 141 126 120 121 108 100 95 89 82 74 69 65 62
283 270 255 247 237 225 204 195 190 182 192 214 222 216 219 231 259 37 44 58 88 325 297 235 188 188 180 175 179 178 178 175 178 182 181 185 190 187 185 182 184 194 200 192 189 190 196 174 158 175 186 184 193 195 190 203 206 184 201 196 164 289 242 190 176 162 186 192 174 172 167 157 165 155 147 148 133 128 129 113 105 98 89 82 74 69 66 63
282 268 250 241 224 213 201 186 175 176 192 219 230 232 236 236 238 359 36 85 93 337 288 230 180 199 187 174 173 178 178 176 180 182 181 186 187 184 186 182 183 192 197 196 193 190 202 184 161 186 189 169 180 194 188 201 219 221 204 183 177 204 204 202 200 185 193 194 167 177 178 174 182 161 152 157 144 139 138 121 109 98 89 84 78 71 66 62
257 241 234 229 204 206 204 176 167 178 200 219 221 223 236 241 241 286 5 111 89 331 277 265 196 212 201 184 169 173 180 179 180 183 182 185 178 180 187 181 181 191 195 196 188 176 207 214 165 185 187 164 171 199 193 187 205 232 213 186 195 217 196 195 203 197 202 197 170 177 186 187 173 151 162 165 151 147 141 122 110 99 91 87 81 75 67 60
238 215 196 213 212 199 177 161 168 190 212 219 219 213 217 234 226 177 5 181 109 263 275 305 313 283 248 192 174 172 182 181 181 186 184 179 164 174 190 185 179 188 191 196 195 173 198 226 178 166 171 172 181 198 201 188 184 201 209 192 193 205 194 189 195 217 222 205 179 179 188 173 116 126 166 160 146 145 137 121 113 102 94 88 82 79 71 63
242 212 149 256 212 167 152 157 184 208 214 218 225 219 218 235 220 167 121 156 144 218 269 297 291 294 317 248 187 173 178 182 183 188 183 176 172 177 189 189 183 182 187 197 199 186 197 215 187 164 176 189 182 169 202 202 190 191 199 199 194 194 189 183 184 201 228 217 190 188 185 144 77 48 128 130 124 128 127 119 111 102 97 91 83 80 75 67
239 191 96 199 168 152 155 178 202 205 211 219 221 218 220 236 243 236 187 178 198 236 252 270 276 275 285 276 226 181 182 186 183 188 185 179 185 183 176 185 188 179 180 194 188 174 211 215 188 174 180 174 129 91 51 310 201 201 206 202 193 192 199 198 191 187 201 213 193 198 198 131 72 65 97 108 110 113 115 113 107 103 99 94 89 85 79 71
205 111 79 144 150 149 188 214 192 201 216 216 220 223 221 226 241 242 207 245 264 241 245 257 266 269 261 271 274 203 184 181 184 188 186 177 171 142 160 174 184 180 181 194 180 158 190 207 184 171 165 137 103 102 133 155 197 206 204 201 195 194 203 213 201 181 189 199 192 204 202 140 95 93 101 106 107 106 106 107 107 107 103 97 94 87 79 74
156 98 103 145 142 142 239 208 182 202 207 210 223 222 217 230 247 245 226 239 254 248 264 266 251 266 273 268 278 224 182 169 176 181 184 178 148 111 159 170 180 185 185 188 178 168 187 196 182 175 171 166 163 162 167 178 197 199 178 174 211 194 189 199 186 182 198 201 200 211 196 131 121 118 111 109 110 106 105 105 105 107 105 101 96 87 80 74
165 107 121 159 164 272 256 256 241 212 199 208 220 218 217 221 243 312 284 253 253 254 265 276 265 272 281 277 280 240 190 165 148 166 179 171 134 124 165 171 187 194 177 167 172 170 175 176 194 198 188 182 183 180 180 179 178 170 142 137 122 186 190 189 183 200 205 188 199 221 156 118 127 128 119 116 116 110 106 104 102 103 104 102 98 90 83 72
217 116 140 179 218 245 254 283 288 237 208 208 213 222 225 220 6 336 299 259 257 254 250 264 270 271 271 261 256 231 191 165 154 171 175 158 134 137 161 166 183 172 129 122 144 148 131 58 29 359 182 174 159 129 129 171 161 149 139 136 113 90 189 206 206 213 187 170 193 176 127 135 144 139 130 126 123 116 112 110 107 106 104 102 98 92 85 74
279 141 150 174 204 225 239 253 250 241 225 215 219 258 232 267 342 323 259 237 251 256 248 252 253 255 256 231 213 203 181 162 157 167 164 150 133 127 147 157 154 132 125 124 138 146 134 95 50 47 74 83 76 78 81 123 131 127 124 119 110 99 146 207 203 203 163 175 185 121 128 141 149 145 137 130 125 118 115 115 114 113 109 105 99 91 85 77
278 136 160 180 193 206 219 222 219 231 234 213 306 13 331 255 258 247 231 228 235 241 240 247 238 238 244 225 193 182 174 162 163 170 160 146 138 132 141 147 136 140 144 136 141 158 123 101 95 87 88 79 71 81 91 98 97 93 94 95 94 99 106 115 95 26 322 181 148 129 130 133 139 141 131 124 123 117 114 115 115 113 108 103 98 91 85 78
71 134 165 210 263 272 255 208 180 144 76 78 53 279 248 245 246 245 238 231 242 233 224 246 239 230 232 213 178 176 174 163 168 177 158 144 145 147 146 139 139 160 161 135 120 136 82 101 127 114 94 80 76 86 94 101 98 84 76 77 81 85 86 88 84 73 77 87 105 120 118 113 123 127 117 115 117 113 112 112 111 108 103 98 93 88 84 79
35 121 142 246 253 240 194 155 109 83 77 117 225 238 239 247 254 258 243 216 226 216 206 235 242 210 196 185 172 172 164 156 161 164 151 142 147 156 156 147 147 157 155 133 125 129 82 136 148 125 93 84 87 95 97 99 95 84 72 67 76 82 79 83 87 81 83 93 107 115 111 105 110 115 114 116 115 112 111 109 107 105 99 93 89 85 82 79
14 341 300 261 229 163 140 116 101 90 177 208 232 240 233 245 253 275 45 175 216 218 195 236 251 163 136 129 119 71 53 98 116 116 116 115 110 107 128 143 152 154 144 124 129 143 122 143 169 164 106 94 109 114 109 104 97 84 67 56 66 78 76 81 86 72 102 124 127 124 122 122 124 120 117 116 115 112 109 108 107 103 97 92 89 87 84 80
8 352 267 268 247 134 140 125 133 189 223 200 228 251 262 271 270 261 116 114 166 215 215 269 282 131 101 76 61 55 73 86 82 76 84 83 74 66 76 94 110 131 137 125 113 135 135 143 176 181 122 115 140 131 120 127 123 95 56 37 54 86 93 93 89 90 117 134 139 139 133 130 131 128 120 116 115 110 109 113 111 105 101 98 94 92 89 85
Height
1510 1509 1509 1508 1508 1507 1507 1506 1506 1505 1504 1504 1503 1503 1502 1502 1502 1502 1502 1502 1502 1502 1502 1502 1503 1503 1503 1503 1503 1503 1503 1503 1503 1502 1500 1501 1504 1505 1505 1506 1506 1507 1508 1509 1510 1511 1512 1513 1514 1515 1516 1517 1517 1517 1518 1518 1518 1518 1515 1514 1512 1508 1506 1504 1503 1505 1505 1506 1507 1508 1509 1508 1506 1506 1507 1507 1507 1508 1509 1510 1511 1511 1512 1513 1514 1515 1516 1516
1508 1508 1507 1507 1506 1506 1505 1505 1504 1504 1503 1502 1502 1502 1501 1501 1501 1501 1501 1501 1501 1501 1501 1501 1502 1502 1502 1502 1502 1502 1502 1502 1501 1499 1498 1500 1503 1502 1503 1504 1505 1506 1508 1509 1510 1511 1512 1512 1513 1514 1515 1516 1516 1516 1517 1517 1518 1515 1512 1512 1509 1504 1504 1504 1505 1506 1507 1509 1509 1509 1509 1509 1507 1506 1507 1506 1506 1507 1508 1509 1511 1511 1512 1513 1514 1516 1516 1517
1507 1506 1506 1505 1505 1504 1504 1503 1503 1502 1502 1501 1501 1501 1500 1500 1500 1500 1500 1500 1500 1500 1500 1500 1501 1501 1501 1501 1501 1502 1501 1501 1500 1497 1497 1499 1500 1500 1502 1503 1503 1505 1506 1508 1510 1511 1512 1512 1513 1513 1514 1513 1514 1516 1515 1516 1516 1512 1511 1511 1506 1502 1505 1507 1508 1509 1510 1511 1510 1510 1510 1509 1508 1508 1508 1506 1506 1507 1505 1507 1510 1510 1512 1513 1514 1516 1517 1519
1506 1505 1505 1504 1504 1503 1503 1502 1502 1501 1500 1500 1499 1499 1499 1498 1498 1498 1498 1499 1499 1499 1499 1499 1500 1500 1500 1500 1501 1501 1502 1501 1497 1495 1495 1496 1498 1498 1500 1500 1502 1503 1505 1507 1509 1511 1512 1512 1512 1513 1513 1511 1512 1515 1514 1514 1513 1511 1511 1508 1503 1505 1507 1508 1510 1511 1512 1513 1511 1511 1510 1509 1509 1510 1509 1506 1507 1507 1504 1506 1508 1508 1511 1513 1514 1516 1518 1520
1505 1504 1503 1503 1502 1502 1501 1500 1500 1499 1499 1499 1498 1498 1498 1497 1497 1497 1497 1497 1497 1497 1498 1498 1499 1499 1499 1500 1500 1501 1502 1498 1493 1493 1493 1494 1495 1496 1497 1498 1500 1501 1504 1506 1507 1509 1510 1512 1512 1512 1511 1509 1511 1513 1511 1512 1512 1511 1509 1506 1505 1508 1508 1508 1510 1512 1513 1513 1512 1511 1510 1510 1510 1509 1509 1507 1505 1505 1505 1507 1509 1509 1512 1513 1514 1516 1518 1521
1503 1503 1502 1501 1501 1500 1500 1499 1498 1498 1497 1497 1497 1496 1496 1496 1496 1495 1496 1496 1496 1496 1496 1497 1497 1498 1498 1499 1499 1501 1500 1494 1490 1493 1492 1493 1494 1495 1496 1497 1498 1500 1502 1504 1506 1508 1509 1510 1511 1510 1509 1507 1508 1509 1508 1511 1512 1510 1507 1507 1508 1508 1508 1509 1511 1513 1514 1513 1512 1511 1511 1511 1510 1508 1508 1508 1505 1505 1508 1509 1510 1511 1512 1513 1515 1517 1519 1522
1502 1502 1501 1500 1500 1499 1498 1497 1497 1496 1496 1495 1495 1495 1495 1495 1494 1494 1494 1495 1495 1495 1495 1495 1496 1497 1497 1498 1499 1500 1499 1493 1492 1493 1492 1493 1493 1494 1495 1495 1497 1498 1501 1503 1505 1506 1507 1509 1508 1507 1506 1505 1506 1506 1506 1509 1512 1509 1505 1506 1508 1508 1509 1510 1511 1513 1513 1513 1512 1512 1512 1511 1509 1508 1508 1508 1507 1508 1510 1510 1511 1512 1512 1514 1516 1517 1520 1523
1501 1500 1499 1499 1498 1497 1497 1496 1495 1495 1494 1494 1494 1494 1493 1493 1493 1493 1493 1493 1493 1493 1493 1494 1495 1496 1496 1497 1498 1498 1496 1493 1492 1492 1491 1492 1492 1493 1494 1495 1496 1497 1499 1502 1503 1505 1506 1507 1506 1505 1504 1503 1504 1504 1506 1508 1510 1509 1506 1506 1507 1508 1510 1510 1512 1512 1512 1512 1512 1512 1511 1510 1509 1509 1508 1508 1508 1510 1510 1511 1512 1512 1513 1515 1517 1518 1521 1524
1500 1499 1498 1498 1497 1496 1495 1494 1493 1493 1493 1493 1493 1492 1492 1491 1491 1491 1491 1491 1492 1491 1491 1492 1493 1494 1495 1496 1498 1497 1492 1490 1490 1490 1491 1491 1491 1492 1493 1494 1494 1496 1499 1501 1503 1504 1505 1504 1504 1504 1503 1502 1503 1503 1505 1507 1506 1505 1505 1505 1506 1507 1508 1510 1511 1511 1511 1511 1511 1511 1510 1509 1510 1510 1508 1508 1509 1510 1511 1512 1512 1513 1515 1516 1518 1519 1522 1524
1498 1498 1497 1496 1495 1494 1493 1493 1492 1491 1491 1491 1491 1491 1490 1490 1489 1489 1490 1490 1490 1490 1490 1491 1492 1493 1494 1495 1497 1494 1488 1488 1489 1489 1490 1490 1490 1491 1492 1493 1493 1495 1497 1500 1502 1502 1503 1503 1503 1505 1504 1502 1502 1503 1505 1505 1502 1503 1505 1505 1505 1506 1507 1508 1509 1509 1510 1509 1510 1510 1508 1508 1510 1509 1507 1507 1510 1510 1511 1512 1513 1514 1515 1517 1519 1520 1522 1524
1497 1496 1496 1494 1494 1493 1492 1491 1491 1490 1490 1489 1489 1489 1489 1488 1488 1488 1488 1488 1489 1489 1489 1489 1490 1491 1492 1494 1495 1490 1486 1487 1488 1488 1489 1489 1489 1490 1491 1491 1492 1494 1496 1498 1500 1501 1503 1503 1504 1506 1504 1502 1502 1503 1503 1503 1503 1504 1505 1505 1505 1505 1506 1507 1507 1508 1508 1507 1508 1508 1506 1508 1509 1508 1507 1508 1510 1511 1512 1513 1513 1515 1516 1518 1519 1520 1522 1524
1496 1495 1494 1493 1492 1491 1490 1490 1489 1489 1488 1488 1488 1487 1487 1486 1486 1486 1487 1487 1487 1488 1488 1488 1489 1490 1491 1492 1491 1487 1485 1486 1487 1487 1488 1488 1489 1489 1489 1490 1491 1494 1496 1497 1499 1501 1502 1503 1504 1504 1502 1501 1501 1502 1502 1503 1504 1504 1505 1503 1503 1504 1504 1504 1504 1505 1506 1505 1506 1507 1508 1508 1507 1508 1509 1510 1511 1511 1512 1513 1513 1515 1516 1518 1519 1521 1523 1525
1494 1493 1492 1491 1490 1489 1489 1488 1487 1487 1487 1487 1486 1485 1485 1484 1485 1485 1485 1486 1486 1486 1486 1487 1488 1489 1491 1490 1485 1484 1485 1485 1485 1486 1486 1487 1488 1488 1488 1489 1490 1493 1495 1497 1499 1500 1502 1502 1503 1503 1502 1501 1499 1501 1501 1502 1504 1504 1504 1501 1500 1503 1502 1500 1501 1503 1504 1504 1504 1507 1508 1506 1505 1509 1511 1512 1512 1512 1512 1512 1514 1515 1517 1519 1520 1523 1525 1526
1492 1492 1491 1490 1489 1488 1487 1486 1486 1485 1485 1485 1484 1484 1483 1482 1483 1483 1483 1484 1484 1485 1485 1486 1487 1488 1490 1485 1480 1482 1483 1483 1483 1484 1485 1486 1487 1488 1488 1488 1489 1492 1494 1497 1498 1500 1500 1502 1503 1503 1503 1501 1498 1501 1501 1502 1504 1502 1503 1502 1498 1500 1498 1496 1499 1501 1502 1503 1503 1506 1504 1501 1505 1510 1511 1512 1513 1513 1513 1513 1514 1516 1518 1520 1521 1524 1526 1528
1490 1490 1489 1488 1487 1486 1486 1485 1484 1484 1483 1483 1482 1481 1480 1481 1481 1481 1482 1482 1483 1484 1484 1485 1487 1489 1489 1482 1478 1479 1479 1480 1481 1481 1484 1485 1486 1487 1488 1488 1489 1491 1494 1496 1497 1499 1500 1502 1503 1501 1502 1501 1500 1500 1499 1500 1500 1498 1503 1505 1498 1495 1494 1496 1499 1498 1500 1500 1501 1505 1501 1500 1507 1510 1511 1513 1513 1513 1513 1513 1515 1517 1519 1521 1522 1525 1528 1529
1489 1488 1487 1486 1485 1484 1484 1484 1483 1482 1482 1481 1480 1479 1479 1479 1479 1479 1480 1480 1482 1483 1484 1486 1486 1489 1488 1480 1476 1477 1477 1477 1478 1479 1481 1482 1485 1487 1488 1488 1490 1492 1494 1496 1497 1499 1500 1502 1502 1500 1499 1500 1500 1496 1496 1499 1499 1497 1499 1500 1498 1494 1492 1496 1498 1497 1497 1498 1500 1502 1498 1500 1508 1511 1513 1514 1513 1514 1513 1513 1515 1516 1519 1520 1523 1526 1528 1529
1487 1486 1485 1484 1483 1483 1482 1482 1481 1481 1480 1479 1478 1477 1477 1477 1477 1478 1478 1480 1481 1482 1484 1486 1487 1489 1484 1476 1474 1475 1475 1476 1476 1477 1479 1480 1484 1486 1487 1488 1489 1492 1493 1496 1498 1498 1500 1501 1500 1500 1498 1496 1495 1492 1497 1502 1500 1498 1496 1494 1495 1492 1491 1496 1498 1496 1496 1497 1499 1500 1500 1505 1510 1511 1513 1514 1513 1514 1513 1514 1515 1516 1519 1520 1523 1526 1528 1529
1485 1484 1483 1483 1482 1481 1481 1480 1480 1479 1478 1477 1476 1476 1476 1476 1476 1477 1477 1479 1481 1483 1485 1485 1488 1486 1476 1470 1473 1473 1473 1474 1474 1476 1477 1478 1482 1484 1486 1487 1489 1491 1493 1495 1496 1498 1499 1499 1498 1497 1496 1494 1491 1490 1496 1497 1493 1495 1496 1495 1496 1493 1490 1492 1494 1495 1495 1496 1497 1500 1504 1509 1511 1512 1513 1515 1515 1515 1515 1515 1516 1517 1519 1521 1523 1525 1527 1529
1483 1482 1482 1481 1480 1479 1479 1478 1478 1477 1476 1475 1475 1475 1475 1476 1477 1477 1477 1478 1479 1481 1480 1479 1480 1477 1468 1467 1471 1471 1472 1472 1472 1474 1476 1477 1480 1483 1485 1487 1488 1490 1491 1492 1493 1495 1496 1496 1497 1495 1492 1491 1489 1488 1488 1486 1485 1489 1492 1492 1495 1495 1491 1489 1491 1493 1493 1495 1496 1498 1504 1509 1512 1514 1515 1517 1517 1517 1517 1517 1517 1519 1520 1522 1523 1525 1527 1529
1481 1480 1480 1479 1478 1478 1477 1477 1476 1475 1475 1475 1475 1476 1476 1476 1476 1475 1477 1477 1474 1472 1472 1471 1471 1469 1467 1469 1470 1469 1471 1471 1472 1473 1474 1475 1478 1481 1484 1485 1487 1488 1487 1486 1489 1493 1493 1493 1493 1490 1487 1487 1488 1486 1484 1484 1484 1486 1488 1489 1489 1491 1491 1490 1493 1495 1491 1495 1501 1501 1505 1511 1514 1516 1517 1519 1520 1519 1519 1519 1519 1520 1522 1523 1524 1525 1527 1529
1478 1478 1478 1477 1476 1476 1475 1475 1475 1473 1473 1474 1475 1475 1474 1474 1471 1470 1473 1472 1468 1468 1468 1469 1469 1468 1467 1469 1469 1469 1470 1470 1471 1472 1473 1474 1477 1479 1480 1482 1483 1484 1483 1483 1487 1490 1491 1490 1487 1485 1484 1484 1486 1486 1486 1488 1486 1487 1487 1487 1488 1486 1488 1491 1494 1497 1494 1498 1506 1505 1508 1514 1516 1518 1520 1520 1521 1522 1523 1523 1523 1523 1524 1525 1526 1526 1528 1529
1476 1476 1475 1475 1475 1474 1474 1473 1472 1471 1472 1473 1473 1473 1472 1472 1470 1469 1471 1468 1464 1465 1466 1467 1468 1467 1465 1467 1468 1468 1470 1469 1469 1470 1471 1473 1475 1474 1476 1478 1478 1479 1479 1480 1485 1489 1490 1486 1481 1481 1482 1483 1486 1487 1489 1490 1488 1488 1486 1487 1489 1484 1487 1495 1496 1497 1496 1499 1506 1506 1509 1517 1519 1520 1521 1521 1523 1526 1528 1527 1527 1528 1528 1528 1529 1529 1529 1530
1474 1474 1474 1473 1473 1472 1472 1471 1471 1470 1471 1472 1472 1472 1471 1471 1470 1470 1471 1468 1461 1460 1461 1463 1464 1463 1462 1464 1466 1467 1469 1467 1466 1467 1469 1471 1472 1472 1473 1474 1474 1475 1477 1478 1480 1485 1487 1482 1478 1480 1482 1484 1487 1488 1490 1491 1490 1488 1485 1487 1488 1483 1488 1498 1498 1499 1498 1498 1503 1505 1510 1517 1519 1521 1522 1524 1526 1528 1530 1530 1530 1531 1531 1531 1531 1531 1531 1532
1471 1472 1472 1471 1471 1471 1470 1469 1469 1469 1470 1470 1470 1470 1470 1470 1469 1470 1471 1467 1459 1455 1457 1458 1459 1459 1459 1461 1464 1465 1467 1466 1465 1465 1466 1468 1469 1470 1470 1470 1471 1473 1475 1476 1476 1479 1479 1476 1476 1480 1483 1484 1488 1489 1490 1491 1491 1488 1485 1485 1485 1484 1486 1491 1495 1499 1499 1500 1501 1502 1511 1517 1517 1520 1523 1524 1527 1529 1531 1532 1532 1533 1534 1533 1532 1532 1532 1532
1469 1470 1469 1469 1470 1469 1468 1468 1468 1469 1469 1469 1468 1468 1468 1469 1469 1470 1470 1464 1454 1450 1452 1454 1456 1455 1455 1460 1461 1462 1465 1464 1463 1463 1464 1466 1466 1467 1468 1469 1470 1471 1473 1475 1476 1477 1475 1473 1476 1480 1482 1483 1486 1488 1488 1488 1489 1489 1487 1483 1482 1485 1487 1490 1494 1497 1503 1508 1502 1499 1512 1521 1518 1519 1523 1525 1527 1531 1533 1534 1534 1535 1535 1534 1533 1533 1533 1533
1467 1467 1467 1468 1468 1467 1468 1468 1467 1468 1467 1468 1469 1467 1469 1469 1468 1470 1469 1460 1447 1443 1447 1449 1450 1448 1449 1455 1457 1461 1464 1459 1459 1463 1463 1465 1466 1465 1466 1467 1467 1468 1470 1473 1475 1474 1471 1473 1477 1479 1481 1482 1484 1485 1485 1485 1487 1489 1487 1484 1483 1485 1488 1492 1492 1494 1502 1505 1499 1496 1506 1519 1522 1521 1522 1525 1528 1532 1535 1536 1536 1536 1536 1535 1535 1535 1535 1535
1465 1465 1465 1466 1466 1466 1467 1467 1467 1467 1466 1468 1468 1467 1469 1468 1468 1470 1467 1459 1445 1435 1439 1444 1444 1442 1444 1449 1453 1458 1457 1451 1455 1460 1461 1463 1465 1465 1465 1464 1466 1467 1466 1473 1478 1473 1469 1474 1477 1478 1480 1481 1482 1483 1481 1482 1485 1485 1483 1485 1487 1487 1489 1491 1491 1492 1493 1495 1499 1498 1498 1510 1522 1524 1522 1523 1526 1533 1535 1537 1539 1539 1538 1537 1536 1537 1537 1537
1462 1463 1463 1464 1464 1464 1466 1466 1466 1466 1467 1467 1466 1468 1469 1466 1469 1469 1463 1456 1440 1426 1432 1440 1440 1441 1443 1446 1449 1450 1448 1445 1450 1456 1459 1461 1463 1464 1463 1461 1464 1466 1466 1472 1476 1471 1469 1474 1476 1476 1479 1480 1479 1478 1479 1482 1483 1480 1480 1485 1487 1488 1489 1488 1489 1490 1490 1497 1505 1500 1495 1505 1519 1523 1521 1520 1524 1533 1537 1539 1541 1540 1540 1539 1538 1539 1539 1538
1460 1461 1461 1462 1462 1462 1463 1464 1465 1466 1466 1465 1466 1467 1466 1467 1469 1465 1458 1449 1431 1422 1429 1435 1437 1440 1441 1444 1446 1446 1444 1444 1444 1449 1456 1460 1460 1462 1461 1459 1463 1466 1468 1469 1470 1468 1470 1473 1473 1474 1476 1476 1475 1475 1477 1482 1482 1481 1484 1486 1487 1489 1490 1488 1489 1487 1492 1503 1504 1497 1495 1502 1517 1523 1518 1517 1521 1530 1538 1540 1541 1541 1541 1541 1541 1541 1541 1540
1458 1458 1459 1460 1461 1462 1462 1462 1463 1464 1465 1465 1465 1465 1465 1468 1465 1459 1457 1445 1425 1422 1429 1431 1434 1436 1437 1441 1443 1443 1442 1442 1442 1446 1454 1457 1459 1461 1460 1460 1462 1464 1468 1469 1466 1465 1468 1471 1471 1472 1473 1472 1473 1474 1477 1480 1481 1483 1486 1488 1489 1491 1490 1492 1490 1484 1497 1509 1497 1489 1490 1496 1516 1521 1511 1514 1520 1526 1536 1540 1541 1542 1541 1542 1542 1542 1542 1541
1455 1456 1457 1458 1460 1461 1461 1462 1462 1462 1463 1463 1463 1464 1466 1465 1458 1450 1447 1437 1424 1425 1428 1429 1431 1431 1433 1436 1438 1441 1439 1439 1442 1445 1449 1453 1457 1459 1458 1459 1460 1462 1468 1470 1466 1465 1469 1472 1471 1470 1471 1471 1472 1476 1480 1480 1481 1485 1485 1486 1492 1495 1494 1497 1496 1493 1506 1509 1490 1484 1489 1494 1511 1516 1510 1518 1523 1525 1534 1538 1540 1543 1543 1544 1543 1543 1543 1542
1453 1454 1455 1456 1458 1459 1460 1461 1461 1460 1461 1461 1462 1464 1462 1461 1457 1445 1432 1427 1430 1430 1425 1426 1428 1429 1431 1431 1432 1437 1435 1436 1439 1441 1444 1447 1451 1453 1453 1453 1455 1461 1469 1468 1465 1467 1469 1468 1468 1470 1472 1471 1473 1478 1482 1482 1483 1484 1483 1486 1494 1499 1503 1506 1502 1501 1505 1501 1490 1487 1490 1497 1511 1514 1514 1523 1528 1530 1536 1538 1541 1543 1543 1545 1544 1544 1544 1542
1451 1452 1453 1454 1455 1457 1458 1459 1460 1460 1460 1461 1462 1463 1460 1455 1449 1436 1423 1423 1433 1433 1427 1427 1426 1426 1429 1427 1428 1432 1432 1433 1436 1438 1441 1443 1447 1450 1449 1448 1449 1455 1462 1463 1464 1470 1471 1467 1465 1469 1471 1471 1471 1474 1481 1484 1483 1483 1481 1485 1490 1494 1507 1512 1504 1500 1500 1498 1496 1491 1491 1506 1522 1522 1519 1526 1531 1533 1537 1540 1542 1543 1544 1546 1545 1545 1545 1544
1450 1450 1451 1452 1453 1454 1456 1457 1458 1459 1460 1461 1461 1461 1460 1450 1435 1426 1423 1424 1431 1433 1430 1429 1427 1426 1427 1424 1424 1427 1429 1430 1432 1435 1438 1441 1445 1448 1447 1447 1447 1449 1453 1458 1462 1466 1471 1471 1465 1466 1468 1469 1469 1468 1473 1478 1480 1480 1475 1477 1483 1483 1493 1504 1498 1493 1495 1497 1500 1499 1499 1510 1521 1524 1523 1527 1531 1533 1537 1541 1542 1543 1544 1546 1546 1546 1546 1546
1448 1448 1449 1449 1450 1452 1453 1455 1456 1458 1459 1461 1459 1458 1455 1442 1428 1425 1426 1426 1433 1434 1430 1428 1427 1426 1427 1424 1421 1422 1424 1427 1430 1432 1435 1437 1440 1442 1442 1444 1445 1446 1448 1457 1459 1458 1465 1465 1458 1460 1463 1464 1469 1467 1466 1474 1478 1478 1473 1474 1480 1474 1475 1491 1495 1488 1488 1496 1505 1510 1511 1513 1518 1525 1525 1527 1531 1533 1537 1540 1541 1544 1545 1546 1547 1547 1547 1548
1446 1447 1447 1447 1449 1450 1452 1453 1455 1456 1458 1458 1455 1452 1445 1435 1428 1428 1429 1430 1436 1436 1430 1427 1424 1424 1426 1423 1421 1421 1421 1425 1428 1430 1432 1434 1436 1437 1439 1440 1442 1443 1444 1451 1455 1456 1462 1459 1451 1458 1463 1460 1465 1466 1464 1471 1474 1475 1476 1475 1474 1465 1466 1485 1498 1494 1489 1499 1511 1515 1517 1521 1525 1529 1528 1527 1532 1534 1535 1539 1541 1544 1546 1546 1547 1547 1548 1549
1445 1446 1446 1446 1448 1449 1450 1451 1453 1455 1457 1456 1452 1445 1438 1432 1430 1430 1432 1434 1437 1437 1433 1428 1422 1420 1422 1421 1420 1420 1420 1424 1427 1428 1430 1432 1433 1433 1436 1438 1441 1442 1442 1446 1451 1452 1456 1457 1452 1457 1463 1461 1462 1463 1464 1466 1466 1472 1476 1472 1470 1471 1470 1475 1490 1499 1496 1501 1513 1514 1515 1521 1523 1528 1531 1528 1531 1534 1534 1536 1541 1544 1546 1547 1547 1548 1549 1549
1444 1445 1445 1446 1447 1447 1448 1449 1451 1454 1455 1453 1449 1442 1436 1433 1431 1430 1433 1435 1436 1438 1435 1428 1420 1417 1416 1417 1418 1417 1418 1424 1427 1426 1428 1431 1430 1430 1433 1436 1439 1441 1441 1443 1449 1450 1450 1456 1458 1455 1458 1461 1461 1464 1468 1467 1464 1467 1468 1465 1470 1481 1483 1477 1484 1497 1497 1502 1513 1512 1510 1513 1511 1519 1530 1529 1530 1534 1533 1535 1540 1544 1546 1547 1548 1549 1549 1549
1444 1444 1444 1444 1445 1446 1446 1448 1450 1453 1453 1449 1444 1440 1436 1434 1432 1432 1434 1435 1437 1439 1435 1428 1423 1419 1414 1411 1413 1415 1417 1422 1425 1424 1427 1430 1431 1430 1431 1434 1438 1440 1441 1441 1445 1448 1447 1454 1460 1455 1453 1458 1462 1464 1467 1468 1468 1467 1464 1464 1467 1473 1477 1476 1477 1482 1486 1496 1509 1513 1512 1508 1505 1512 1523 1525 1527 1530 1532 1536 1541 1544 1546 1548 1549 1550 1549 1550
1443 1443 1443 1443 1444 1445 1446 1448 1450 1451 1448 1443 1438 1436 1435 1433 1432 1433 1435 1436 1437 1439 1436 1431 1427 1423 1418 1410 1408 1411 1415 1419 1423 1424 1425 1427 1432 1434 1431 1432 1437 1440 1442 1442 1443 1446 1448 1453 1459 1457 1455 1459 1461 1460 1459 1461 1465 1467 1467 1467 1468 1467 1466 1470 1474 1472 1474 1484 1499 1512 1513 1507 1509 1514 1515 1520 1525 1528 1532 1538 1541 1544 1547 1548 1549 1550 1550 1550
1442 1442 1441 1442 1443 1444 1446 1448 1448 1446 1443 1439 1436 1435 1435 1433 1432 1433 1435 1436 1437 1439 1437 1434 1431 1427 1425 1418 1409 1407 1412 1416 1418 1421 1422 1425 1432 1435 1432 1432 1435 1438 1441 1443 1444 1446 1448 1450 1455 1458 1458 1458 1456 1454 1455 1456 1456 1461 1464 1463 1464 1466 1465 1474 1482 1475 1469 1473 1483 1496 1503 1508 1518 1519 1516 1521 1527 1530 1534 1537 1540 1544 1547 1548 1549 1550 1550 1550
1441 1440 1440 1442 1443 1444 1446 1445 1442 1441 1439 1437 1435 1435 1434 1434 1433 1432 1434 1435 1436 1437 1436 1434 1432 1429 1427 1423 1414 1408 1410 1413 1415 1418 1420 1422 1426 1429 1430 1433 1434 1435 1440 1443 1443 1445 1447 1446 1450 1455 1455 1454 1455 1457 1458 1458 1456 1456 1458 1455 1456 1461 1462 1471 1480 1477 1474 1475 1476 1481 1493 1513 1528 1525 1523 1529 1530 1533 1537 1537 1540 1545 1547 1549 1550 1550 1551 1551
1441 1440 1441 1443 1443 1445 1447 1441 1437 1438 1437 1434 1434 1434 1433 1433 1433 1433 1435 1436 1435 1436 1435 1432 1431 1428 1425 1422 1418 1412 1410 1413 1416 1417 1418 1421 1425 1428 1430 1433 1434 1435 1438 1441 1442 1446 1448 1447 1450 1455 1455 1454 1457 1458 1457 1459 1459 1458 1456 1453 1453 1456 1457 1460 1463 1467 1475 1479 1479 1482 1493 1516 1531 1529 1529 1533 1533 1536 1539 1539 1541 1545 1547 1550 1551 1551 1552 1552
1441 1441 1443 1444 1443 1446 1445 1437 1433 1435 1435 1434 1435 1434 1433 1433 1434 1434 1435 1436 1436 1434 1434 1431 1429 1428 1424 1421 1419 1413 1411 1417 1421 1420 1420 1421 1427 1432 1432 1433 1434 1433 1435 1439 1441 1445 1450 1448 1451 1459 1465 1466 1466 1464 1463 1462 1460 1458 1460 1460 1458 1456 1457 1459 1459 1464 1473 1476 1477 1480 1492 1515 1530 1532 1533 1534 1536 1539 1540 1542 1544 1545 1548 1550 1551 1552 1552 1552
1439 1440 1444 1445 1444 1445 1442 1436 1433 1434 1433 1435 1435 1433 1432 1433 1434 1435 1435 1436 1436 1435 1434 1431 1428 1428 1425 1422 1421 1415 1409 1416 1425 1427 1425 1424 1428 1432 1432 1433 1435 1433 1435 1438 1439 1443 1450 1453 1454 1457 1462 1467 1469 1468 1464 1461 1459 1461 1464 1466 1464 1461 1460 1462 1465 1471 1476 1478 1475 1476 1494 1521 1532 1532 1535 1537 1538 1540 1542 1544 1546 1546 1549 1550 1550 1552 1552 1552
1437 1438 1443 1445 1445 1444 1442 1439 1437 1435 1434 1435 1435 1433 1432 1433 1435 1437 1437 1437 1436 1435 1434 1431 1428 1428 1426 1424 1424 1417 1409 1412 1422 1426 1424 1424 1429 1431 1431 1434 1436 1435 1437 1440 1441 1444 1451 1458 1460 1457 1455 1458 1462 1462 1458 1454 1456 1463 1468 1468 1468 1468 1466 1464 1467 1470 1472 1476 1478 1479 1496 1521 1531 1531 1535 1538 1539 1541 1542 1545 1547 1548 1550 1550 1550 1552 1552 1552
1437 1437 1439 1442 1442 1442 1441 1439 1438 1436 1434 1434 1434 1434 1435 1438 1439 1439 1438 1436 1435 1434 1433 1430 1428 1427 1425 1423 1422 1418 1413 1413 1419 1422 1421 1423 1427 1429 1432 1435 1436 1438 1439 1441 1442 1444 1450 1461 1467 1464 1461 1461 1462 1462 1459 1456 1458 1464 1469 1470 1471 1472 1469 1467 1471 1471 1467 1471 1482 1488 1497 1513 1525 1530 1534 1537 1540 1542 1543 1546 1548 1549 1550 1551 1551 1551 1552 1553
1438 1437 1438 1439 1438 1437 1437 1437 1436 1436 1435 1435 1437 1439 1440 1442 1443 1441 1437 1434 1433 1433 1432 1430 1426 1425 1423 1420 1419 1419 1417 1418 1423 1424 1422 1424 1427 1429 1433 1435 1436 1439 1440 1441 1443 1442 1448 1464 1470 1466 1467 1467 1465 1463 1461 1460 1465 1468 1470 1472 1473 1472 1471 1473 1478 1477 1470 1471 1481 1491 1498 1510 1522 1530 1533 1537 1541 1542 1544 1547 1549 1550 1551 1551 1551 1551 1553 1553
1438 1438 1439 1439 1438 1436 1435 1435 1436 1437 1437 1438 1441 1442 1442 1441 1439 1437 1433 1433 1433 1432 1432 1431 1425 1420 1419 1417 1418 1420 1420 1424 1430 1427 1421 1423 1427 1430 1433 1436 1438 1439 1438 1440 1444 1443 1450 1467 1471 1466 1470 1471 1469 1468 1466 1465 1469 1472 1474 1476 1475 1474 1475 1477 1481 1479 1477 1479 1484 1492 1504 1516 1526 1531 1534 1539 1542 1543 1546 1548 1549 1550 1551 1551 1552 1552 1553 1554
1439 1439 1439 1439 1438 1436 1435 1436 1437 1439 1441 1442 1442 1441 1439 1437 1435 1431 1428 1432 1434 1431 1431 1430 1421 1414 1415 1416 1419 1422 1419 1420 1426 1425 1421 1424 1428 1429 1432 1434 1436 1437 1438 1441 1444 1444 1453 1468 1470 1466 1472 1476 1473 1472 1471 1470 1473 1478 1483 1482 1480 1481 1483 1483 1485 1485 1485 1491 1497 1504 1515 1527 1532 1534 1537 1541 1543 1544 1546 1549 1550 1552 1552 1552 1553 1553 1554 1556
1440 1440 1440 1440 1437 1435 1436 1436 1438 1442 1442 1442 1441 1437 1434 1433 1430 1427 1427 1429 1430 1428 1427 1426 1418 1413 1413 1416 1420 1422 1419 1416 1419 1421 1423 1426 1429 1430 1431 1432 1433 1436 1439 1442 1445 1445 1451 1466 1470 1464 1471 1481 1478 1474 1475 1475 1477 1484 1493 1495 1490 1491 1494 1493 1493 1492 1492 1500 1508 1511 1518 1530 1535 1536 1539 1541 1544 1545 1547 1550 1552 1553 1553 1553 1554 1555 1556 1557
1441 1440 1441 1440 1436 1435 1437 1437 1439 1441 1439 1436 1436 1433 1430 1429 1425 1425 1428 1429 1428 1427 1426 1424 1419 1414 1416 1420 1423 1424 1422 1419 1420 1425 1427 1428 1430 1431 1432 1432 1432 1435 1438 1442 1446 1446 1447 1460 1465 1459 1469 1484 1482 1476 1477 1474 1473 1484 1499 1505 1501 1498 1499 1499 1497 1497 1497 1502 1505 1506 1515 1528 1534 1536 1539 1542 1545 1547 1549 1552 1553 1553 1554 1555 1556 1556 1558 1559